Time,TemperatureF,DewpointF,PressureIn,WindDirection,WindDirectionDegrees,WindSpeedMPH,WindSpeedGustMPH,Humidity,HourlyPrecipIn,Conditions,Clouds,dailyrainin,SoftwareType,DateUTC
2013-01-23 00:01:00,59.4,18.3,30.03,East,92,0.0,0.0,20,0.00,,,0.00,Wunderground v.1.15,2013-01-23 08:01:00,
2013-01-23 00:06:00,59.4,18.3,30.03,East,98,0.0,1.0,20,0.00,,,0.00,Wunderground v.1.15,2013-01-23 08:06:00,
2013-01-23 00:11:00,59.4,19.4,30.03,East,95,0.0,0.0,21,0.00,,,0.00,Wunderground v.1.15,2013-01-23 08:11:00,
2013-01-23 00:17:00,59.3,18.2,30.03,East,84,0.0,1.0,20,0.00,,,0.00,Wunderground v.1.15,2013-01-23 08:17:00,
2013-01-23 00:23:00,59.3,19.3,30.03,East,98,0.0,1.0,21,0.00,,,0.00,Wunderground v.1.15,2013-01-23 08:23:00,
2013-01-23 00:28:00,59.2,19.2,30.03,East,88,4.0,4.0,21,0.00,,,0.00,Wunderground v.1.15,2013-01-23 08:28:00,
2013-01-23 00:34:00,59.0,19.1,30.03,East,96,0.0,1.0,21,0.00,,,0.00,Wunderground v.1.15,2013-01-23 08:34:00,
2013-01-23 00:39:00,59.0,19.1,30.02,ESE,109,0.0,0.0,21,0.00,,,0.00,Wunderground v.1.15,2013-01-23 08:39:00,
2013-01-23 00:45:00,59.1,19.1,30.03,ENE,73,0.0,3.0,21,0.00,,,0.00,Wunderground v.1.15,2013-01-23 08:45:00,
2013-01-23 00:50:00,59.4,18.3,30.03,East,91,0.0,0.0,20,0.00,,,0.00,Wunderground v.1.15,2013-01-23 08:50:00,
2013-01-23 00:56:00,59.5,19.5,30.02,ESE,121,0.0,0.0,21,0.00,,,0.00,Wunderground v.1.15,2013-01-23 08:56:00,
2013-01-23 01:01:00,59.5,19.5,30.02,ENE,64,0.0,1.0,21,0.00,,,0.00,Wunderground v.1.15,2013-01-23 09:01:00,
2013-01-23 01:07:00,59.3,19.3,30.03,East,84,0.0,1.0,21,0.00,,,0.00,Wunderground v.1.15,2013-01-23 09:07:00,
2013-01-23 01:13:00,59.1,19.1,30.03,East,88,0.0,1.0,21,0.00,,,0.00,Wunderground v.1.15,2013-01-23 09:13:00,
2013-01-23 01:18:00,59.1,19.1,30.03,ESE,107,1.0,1.0,21,0.00,,,0.00,Wunderground v.1.15,2013-01-23 09:18:00,
2013-01-23 01:24:00,59.3,19.3,30.03,ESE,108,0.0,0.0,21,0.00,,,0.00,Wunderground v.1.15,2013-01-23 09:24:00,
2013-01-23 01:29:00,59.4,19.4,30.03,ESE,119,0.0,0.0,21,0.00,,,0.00,Wunderground v.1.15,2013-01-23 09:29:00,
2013-01-23 01:34:00,59.5,19.5,30.02,ESE,107,0.0,0.0,21,0.00,,,0.00,Wunderground v.1.15,2013-01-23 09:34:00,
2013-01-23 01:40:00,59.9,18.7,30.02,East,86,0.0,0.0,20,0.00,,,0.00,Wunderground v.1.15,2013-01-23 09:40:00,
2013-01-23 01:46:00,60.2,18.9,30.02,East,87,0.0,5.0,20,0.00,,,0.00,Wunderground v.1.15,2013-01-23 09:46:00,
2013-01-23 01:51:00,60.2,20.1,30.02,ESE,109,0.0,1.0,21,0.00,,,0.00,Wunderground v.1.15,2013-01-23 09:51:00,
2013-01-23 01:57:00,60.2,20.1,30.02,East,98,0.0,1.0,21,0.00,,,0.00,Wunderground v.1.15,2013-01-23 09:57:00,
2013-01-23 02:02:00,60.1,20.0,30.02,East,86,0.0,3.0,21,0.00,,,0.00,Wunderground v.1.15,2013-01-23 10:02:00,
2013-01-23 02:07:00,60.2,20.1,30.02,East,99,0.0,3.0,21,0.00,,,0.00,Wunderground v.1.15,2013-01-23 10:07:00,
2013-01-23 02:12:00,60.2,20.1,30.02,ENE,78,0.0,4.0,21,0.00,,,0.00,Wunderground v.1.15,2013-01-23 10:12:00,
2013-01-23 02:17:00,60.2,20.1,30.02,East,94,0.0,4.0,21,0.00,,,0.00,Wunderground v.1.15,2013-01-23 10:17:00,
2013-01-23 02:22:00,60.2,18.9,30.02,ESE,103,0.0,2.0,20,0.00,,,0.00,Wunderground v.1.15,2013-01-23 10:22:00,
2013-01-23 02:27:00,60.3,19.0,30.02,ESE,106,0.0,6.0,20,0.00,,,0.00,Wunderground v.1.15,2013-01-23 10:27:00,
2013-01-23 02:32:00,60.4,19.1,30.02,East,84,0.0,7.0,20,0.00,,,0.00,Wunderground v.1.15,2013-01-23 10:32:00,
2013-01-23 02:37:00,60.5,19.2,30.02,East,97,3.0,7.0,20,0.00,,,0.00,Wunderground v.1.15,2013-01-23 10:37:00,
2013-01-23 02:42:00,60.7,19.3,30.02,ESE,116,0.0,4.0,20,0.00,,,0.00,Wunderground v.1.15,2013-01-23 10:42:00,
2013-01-23 02:47:00,60.7,19.3,30.02,ESE,120,0.0,4.0,20,0.00,,,0.00,Wunderground v.1.15,2013-01-23 10:47:00,
2013-01-23 02:53:00,60.7,19.3,30.02,ESE,111,0.0,2.0,20,0.00,,,0.00,Wunderground v.1.15,2013-01-23 10:53:00,
2013-01-23 02:58:00,60.7,19.3,30.01,East,91,3.0,4.0,20,0.00,,,0.00,Wunderground v.1.15,2013-01-23 10:58:00,
2013-01-23 03:03:00,60.7,19.3,30.02,ESE,113,0.0,2.0,20,0.00,,,0.00,Wunderground v.1.15,2013-01-23 11:03:00,
2013-01-23 03:08:00,60.6,20.4,30.02,East,96,0.0,5.0,21,0.00,,,0.00,Wunderground v.1.15,2013-01-23 11:08:00,
2013-01-23 03:13:00,60.4,20.2,30.01,ESE,105,1.0,3.0,21,0.00,,,0.00,Wunderground v.1.15,2013-01-23 11:13:00,
2013-01-23 03:18:00,60.3,20.2,30.02,ESE,105,1.0,5.0,21,0.00,,,0.00,Wunderground v.1.15,2013-01-23 11:18:00,
2013-01-23 03:23:00,60.2,20.1,30.01,ESE,123,0.0,4.0,21,0.00,,,0.00,Wunderground v.1.15,2013-01-23 11:23:00,
2013-01-23 03:28:00,60.1,20.0,30.01,East,84,2.0,6.0,21,0.00,,,0.00,Wunderground v.1.15,2013-01-23 11:28:00,
2013-01-23 03:33:00,60.3,20.2,30.01,East,97,2.0,6.0,21,0.00,,,0.00,Wunderground v.1.15,2013-01-23 11:33:00,
2013-01-23 03:38:00,60.5,20.3,30.01,ESE,109,0.0,6.0,21,0.00,,,0.00,Wunderground v.1.15,2013-01-23 11:38:00,
2013-01-23 03:43:00,60.6,20.4,30.01,East,87,0.0,4.0,21,0.00,,,0.00,Wunderground v.1.15,2013-01-23 11:43:00,
2013-01-23 03:48:00,60.7,20.5,30.01,East,90,0.0,4.0,21,0.00,,,0.00,Wunderground v.1.15,2013-01-23 11:48:00,
2013-01-23 03:53:00,60.6,20.4,30.01,ENE,63,2.0,2.0,21,0.00,,,0.00,Wunderground v.1.15,2013-01-23 11:53:00,
2013-01-23 03:58:00,60.4,20.2,30.00,East,81,5.0,7.0,21,0.00,,,0.00,Wunderground v.1.15,2013-01-23 11:58:00,
2013-01-23 04:03:00,60.4,20.2,30.02,ESE,111,1.0,4.0,21,0.00,,,0.00,Wunderground v.1.15,2013-01-23 12:03:00,
2013-01-23 04:08:00,60.4,20.2,30.01,East,90,1.0,4.0,21,0.00,,,0.00,Wunderground v.1.15,2013-01-23 12:08:00,
2013-01-23 04:13:00,60.3,20.2,30.02,ENE,59,0.0,4.0,21,0.00,,,0.00,Wunderground v.1.15,2013-01-23 12:13:00,
2013-01-23 04:18:00,60.4,20.2,30.02,East,88,0.0,5.0,21,0.00,,,0.00,Wunderground v.1.15,2013-01-23 12:18:00,
2013-01-23 04:23:00,60.4,20.2,30.02,East,95,0.0,1.0,21,0.00,,,0.00,Wunderground v.1.15,2013-01-23 12:23:00,
2013-01-23 04:28:00,60.3,20.2,30.02,East,87,0.0,1.0,21,0.00,,,0.00,Wunderground v.1.15,2013-01-23 12:28:00,
2013-01-23 04:33:00,60.3,20.2,30.02,East,89,0.0,1.0,21,0.00,,,0.00,Wunderground v.1.15,2013-01-23 12:33:00,
2013-01-23 04:38:00,60.2,20.1,30.02,ENE,78,0.0,1.0,21,0.00,,,0.00,Wunderground v.1.15,2013-01-23 12:38:00,
2013-01-23 04:43:00,60.0,19.9,30.02,East,83,0.0,0.0,21,0.00,,,0.00,Wunderground v.1.15,2013-01-23 12:43:00,
2013-01-23 04:48:00,59.9,19.8,30.02,ENE,78,0.0,0.0,21,0.00,,,0.00,Wunderground v.1.15,2013-01-23 12:48:00,
2013-01-23 04:53:00,59.7,19.6,30.02,ENE,78,0.0,0.0,21,0.00,,,0.00,Wunderground v.1.15,2013-01-23 12:53:00,
2013-01-23 04:58:00,59.4,19.4,30.02,ENE,78,0.0,0.0,21,0.00,,,0.00,Wunderground v.1.15,2013-01-23 12:58:00,
2013-01-23 05:03:00,59.2,19.2,30.03,ENE,78,0.0,0.0,21,0.00,,,0.00,Wunderground v.1.15,2013-01-23 13:03:00,
2013-01-23 05:08:00,59.0,19.1,30.03,ENE,78,0.0,0.0,21,0.00,,,0.00,Wunderground v.1.15,2013-01-23 13:08:00,
2013-01-23 05:13:00,59.1,20.2,30.03,East,101,0.0,0.0,22,0.00,,,0.00,Wunderground v.1.15,2013-01-23 13:13:00,
2013-01-23 05:18:00,59.3,19.3,30.03,ESE,105,0.0,1.0,21,0.00,,,0.00,Wunderground v.1.15,2013-01-23 13:18:00,
2013-01-23 05:23:00,59.6,19.6,30.03,ESE,114,0.0,0.0,21,0.00,,,0.00,Wunderground v.1.15,2013-01-23 13:23:00,
2013-01-23 05:28:00,59.8,19.7,30.02,East,86,0.0,4.0,21,0.00,,,0.00,Wunderground v.1.15,2013-01-23 13:28:00,
2013-01-23 05:33:00,59.8,20.8,30.02,ENE,73,0.0,0.0,22,0.00,,,0.00,Wunderground v.1.15,2013-01-23 13:33:00,
2013-01-23 05:38:00,59.5,20.6,30.03,ENE,73,0.0,0.0,22,0.00,,,0.00,Wunderground v.1.15,2013-01-23 13:38:00,
2013-01-23 05:43:00,59.3,20.4,30.03,East,92,0.0,1.0,22,0.00,,,0.00,Wunderground v.1.15,2013-01-23 13:43:00,
2013-01-23 05:48:00,59.1,21.3,30.03,East,92,0.0,1.0,23,0.00,,,0.00,Wunderground v.1.15,2013-01-23 13:48:00,
2013-01-23 05:54:00,59.0,21.2,30.03,East,100,0.0,0.0,23,0.00,,,0.00,Wunderground v.1.15,2013-01-23 13:54:00,
2013-01-23 05:59:00,59.1,21.3,30.03,ESE,105,0.0,1.0,23,0.00,,,0.00,Wunderground v.1.15,2013-01-23 13:59:00,
2013-01-23 06:04:00,59.3,21.5,30.03,East,82,0.0,0.0,23,0.00,,,0.00,Wunderground v.1.15,2013-01-23 14:04:00,
2013-01-23 06:09:00,59.4,20.5,30.03,East,92,0.0,1.0,22,0.00,,,0.00,Wunderground v.1.15,2013-01-23 14:09:00,
2013-01-23 06:14:00,59.8,20.8,30.03,ESE,105,0.0,1.0,22,0.00,,,0.00,Wunderground v.1.15,2013-01-23 14:14:00,
2013-01-23 06:19:00,60.3,21.2,30.03,ENE,72,0.0,3.0,22,0.00,,,0.00,Wunderground v.1.15,2013-01-23 14:19:00,
2013-01-23 06:24:00,60.4,20.2,30.03,East,93,0.0,2.0,21,0.00,,,0.00,Wunderground v.1.15,2013-01-23 14:24:00,
2013-01-23 06:29:00,60.4,21.3,30.03,East,96,0.0,2.0,22,0.00,,,0.00,Wunderground v.1.15,2013-01-23 14:29:00,
2013-01-23 06:34:00,60.2,21.2,30.03,East,94,0.0,1.0,22,0.00,,,0.00,Wunderground v.1.15,2013-01-23 14:34:00,
2013-01-23 06:39:00,60.2,21.2,30.03,ENE,75,0.0,5.0,22,0.00,,,0.00,Wunderground v.1.15,2013-01-23 14:39:00,
2013-01-23 06:44:00,60.4,20.2,30.04,ENE,78,0.0,3.0,21,0.00,,,0.00,Wunderground v.1.15,2013-01-23 14:44:00,
2013-01-23 06:49:00,60.7,20.5,30.04,East,84,1.0,3.0,21,0.00,,,0.00,Wunderground v.1.15,2013-01-23 14:49:00,
2013-01-23 06:54:00,60.9,20.7,30.04,East,101,0.0,1.0,21,0.00,,,0.00,Wunderground v.1.15,2013-01-23 14:54:00,
2013-01-23 06:59:00,60.9,20.7,30.04,East,101,0.0,2.0,21,0.00,,,0.00,Wunderground v.1.15,2013-01-23 14:59:00,
2013-01-23 07:04:00,60.9,20.7,30.05,East,90,0.0,1.0,21,0.00,,,0.00,Wunderground v.1.15,2013-01-23 15:04:00,
2013-01-23 07:09:00,60.8,20.6,30.05,ESE,105,0.0,3.0,21,0.00,,,0.00,Wunderground v.1.15,2013-01-23 15:09:00,
2013-01-23 07:14:00,60.9,21.8,30.05,ENE,60,0.0,0.0,22,0.00,,,0.00,Wunderground v.1.15,2013-01-23 15:14:00,
2013-01-23 07:19:00,60.7,21.6,30.05,East,80,0.0,0.0,22,0.00,,,0.00,Wunderground v.1.15,2013-01-23 15:19:00,
2013-01-23 07:24:00,60.7,21.6,30.05,ESE,105,0.0,5.0,22,0.00,,,0.00,Wunderground v.1.15,2013-01-23 15:24:00,
2013-01-23 07:29:00,60.9,21.8,30.06,ENE,57,1.0,5.0,22,0.00,,,0.00,Wunderground v.1.15,2013-01-23 15:29:00,
2013-01-23 07:34:00,61.1,21.9,30.06,ENE,76,0.0,4.0,22,0.00,,,0.00,Wunderground v.1.15,2013-01-23 15:34:00,
2013-01-23 07:39:00,61.2,22.0,30.05,East,95,0.0,4.0,22,0.00,,,0.00,Wunderground v.1.15,2013-01-23 15:39:00,
2013-01-23 07:44:00,61.3,22.1,30.06,East,101,0.0,1.0,22,0.00,,,0.00,Wunderground v.1.15,2013-01-23 15:44:00,
2013-01-23 07:49:00,61.4,21.1,30.06,East,90,3.0,4.0,21,0.00,,,0.00,Wunderground v.1.15,2013-01-23 15:49:00,
2013-01-23 07:54:00,61.7,21.3,30.06,East,94,0.0,4.0,21,0.00,,,0.00,Wunderground v.1.15,2013-01-23 15:54:00,
2013-01-23 07:59:00,61.9,22.6,30.06,East,96,2.0,6.0,22,0.00,,,0.00,Wunderground v.1.15,2013-01-23 15:59:00,
2013-01-23 08:04:00,62.1,21.7,30.06,ESE,106,1.0,6.0,21,0.00,,,0.00,Wunderground v.1.15,2013-01-23 16:04:00,
2013-01-23 08:09:00,62.4,23.0,30.06,East,80,0.0,6.0,22,0.00,,,0.00,Wunderground v.1.15,2013-01-23 16:09:00,
2013-01-23 08:14:00,62.5,23.1,30.06,ENE,66,6.0,6.0,22,0.00,,,0.00,Wunderground v.1.15,2013-01-23 16:14:00,
2013-01-23 08:19:00,62.5,23.1,30.06,ESE,104,3.0,6.0,22,0.00,,,0.00,Wunderground v.1.15,2013-01-23 16:19:00,
2013-01-23 08:24:00,62.4,23.0,30.06,East,87,2.0,6.0,22,0.00,,,0.00,Wunderground v.1.15,2013-01-23 16:24:00,
2013-01-23 08:29:00,62.2,22.8,30.07,ENE,77,3.0,7.0,22,0.00,,,0.00,Wunderground v.1.15,2013-01-23 16:29:00,
2013-01-23 08:34:00,62.0,22.7,30.07,ENE,66,0.0,7.0,22,0.00,,,0.00,Wunderground v.1.15,2013-01-23 16:34:00,
2013-01-23 08:39:00,62.0,22.7,30.07,East,84,1.0,7.0,22,0.00,,,0.00,Wunderground v.1.15,2013-01-23 16:39:00,
2013-01-23 08:44:00,62.1,22.8,30.06,NNE,32,1.0,7.0,22,0.00,,,0.00,Wunderground v.1.15,2013-01-23 16:44:00,
2013-01-23 08:49:00,62.3,22.9,30.07,ENE,77,7.0,9.0,22,0.00,,,0.00,Wunderground v.1.15,2013-01-23 16:49:00,
2013-01-23 08:54:00,62.3,22.9,30.07,East,88,1.0,7.0,22,0.00,,,0.00,Wunderground v.1.15,2013-01-23 16:54:00,
2013-01-23 08:59:00,62.4,23.0,30.07,NNE,30,5.0,7.0,22,0.00,,,0.00,Wunderground v.1.15,2013-01-23 16:59:00,
2013-01-23 09:04:00,62.5,24.2,30.07,ENE,73,7.0,9.0,23,0.00,,,0.00,Wunderground v.1.15,2013-01-23 17:04:00,
2013-01-23 09:09:00,62.6,24.2,30.08,ENE,74,7.0,9.0,23,0.00,,,0.00,Wunderground v.1.15,2013-01-23 17:09:00,
2013-01-23 09:14:00,62.5,24.2,30.07,ESE,115,0.0,9.0,23,0.00,,,0.00,Wunderground v.1.15,2013-01-23 17:14:00,
2013-01-23 09:19:00,62.5,24.2,30.07,ENE,72,5.0,11.0,23,0.00,,,0.00,Wunderground v.1.15,2013-01-23 17:19:00,
2013-01-23 09:24:00,62.4,24.1,30.08,ESE,105,4.0,7.0,23,0.00,,,0.00,Wunderground v.1.15,2013-01-23 17:24:00,
2013-01-23 09:29:00,62.5,24.2,30.08,East,101,5.0,8.0,23,0.00,,,0.00,Wunderground v.1.15,2013-01-23 17:29:00,
2013-01-23 09:34:00,62.5,24.2,30.07,ENE,57,7.0,10.0,23,0.00,,,0.00,Wunderground v.1.15,2013-01-23 17:34:00,
2013-01-23 09:39:00,62.8,24.4,30.07,East,101,1.0,10.0,23,0.00,,,0.00,Wunderground v.1.15,2013-01-23 17:39:00,
2013-01-23 09:44:00,63.0,24.6,30.08,ESE,105,5.0,11.0,23,0.00,,,0.00,Wunderground v.1.15,2013-01-23 17:44:00,
2013-01-23 09:49:00,63.9,25.3,30.08,ESE,107,1.0,11.0,23,0.00,,,0.00,Wunderground v.1.15,2013-01-23 17:49:00,
2013-01-23 09:54:00,64.3,24.6,30.08,NNE,22,2.0,9.0,22,0.00,,,0.00,Wunderground v.1.15,2013-01-23 17:54:00,
2013-01-23 09:59:00,64.0,24.4,30.08,ENE,69,1.0,9.0,22,0.00,,,0.00,Wunderground v.1.15,2013-01-23 17:59:00,
2013-01-23 10:04:00,64.6,24.9,30.08,East,98,1.0,8.0,22,0.00,,,0.00,Wunderground v.1.15,2013-01-23 18:04:00,
2013-01-23 10:09:00,64.7,24.9,30.08,SE,134,2.0,8.0,22,0.00,,,0.00,Wunderground v.1.15,2013-01-23 18:09:00,
2013-01-23 10:14:00,64.7,24.9,30.07,ENE,71,7.0,9.0,22,0.00,,,0.00,Wunderground v.1.15,2013-01-23 18:14:00,
2013-01-23 10:19:00,65.7,24.7,30.07,East,92,3.0,9.0,21,0.00,,,0.00,Wunderground v.1.15,2013-01-23 18:19:00,
2013-01-23 10:24:00,66.2,23.9,30.07,East,97,1.0,15.0,20,0.00,,,0.00,Wunderground v.1.15,2013-01-23 18:24:00,
2013-01-23 10:29:00,65.8,24.7,30.07,ENE,61,1.0,15.0,21,0.00,,,0.00,Wunderground v.1.15,2013-01-23 18:29:00,
2013-01-23 10:34:00,65.4,23.2,30.08,ENE,67,5.0,14.0,20,0.00,,,0.00,Wunderground v.1.15,2013-01-23 18:34:00,
2013-01-23 10:39:00,65.2,23.1,30.08,ESE,109,3.0,14.0,20,0.00,,,0.00,Wunderground v.1.15,2013-01-23 18:39:00,
2013-01-23 10:44:00,65.1,24.2,30.07,ENE,71,0.0,10.0,21,0.00,,,0.00,Wunderground v.1.15,2013-01-23 18:44:00,
2013-01-23 10:49:00,65.3,24.3,30.07,SE,124,1.0,10.0,21,0.00,,,0.00,Wunderground v.1.15,2013-01-23 18:49:00,
2013-01-23 10:54:00,65.5,23.3,30.06,NE,37,5.0,9.0,20,0.00,,,0.00,Wunderground v.1.15,2013-01-23 18:54:00,
2013-01-23 10:59:00,65.4,23.2,30.06,East,91,0.0,11.0,20,0.00,,,0.00,Wunderground v.1.15,2013-01-23 18:59:00,
2013-01-23 11:04:00,65.6,23.4,30.05,ENE,60,2.0,9.0,20,0.00,,,0.00,Wunderground v.1.15,2013-01-23 19:04:00,
2013-01-23 11:09:00,65.8,23.6,30.05,ESE,114,1.0,9.0,20,0.00,,,0.00,Wunderground v.1.15,2013-01-23 19:09:00,
2013-01-23 11:14:00,66.3,25.2,30.05,East,83,7.0,8.0,21,0.00,,,0.00,Wunderground v.1.15,2013-01-23 19:14:00,
2013-01-23 11:19:00,66.7,24.3,30.04,ESE,105,0.0,8.0,20,0.00,,,0.00,Wunderground v.1.15,2013-01-23 19:19:00,
2013-01-23 11:24:00,66.8,24.4,30.04,ESE,107,1.0,8.0,20,0.00,,,0.00,Wunderground v.1.15,2013-01-23 19:24:00,
2013-01-23 11:29:00,66.9,24.5,30.04,ENE,75,2.0,9.0,20,0.00,,,0.00,Wunderground v.1.15,2013-01-23 19:29:00,
2013-01-23 11:34:00,67.1,24.6,30.03,ESE,115,5.0,9.0,20,0.00,,,0.00,Wunderground v.1.15,2013-01-23 19:34:00,
2013-01-23 11:39:00,67.3,23.6,30.03,SE,139,2.0,10.0,19,0.00,,,0.00,Wunderground v.1.15,2013-01-23 19:39:00,
2013-01-23 11:45:00,67.5,23.7,30.03,ESE,107,1.0,9.0,19,0.00,,,0.00,Wunderground v.1.15,2013-01-23 19:45:00,
2013-01-23 11:50:00,67.7,23.9,30.03,ESE,119,4.0,4.0,19,0.00,,,0.00,Wunderground v.1.15,2013-01-23 19:50:00,
2013-01-23 11:55:00,67.7,23.9,30.03,ENE,75,1.0,9.0,19,0.00,,,0.00,Wunderground v.1.15,2013-01-23 19:55:00,
2013-01-23 12:00:00,67.5,23.7,30.02,East,86,0.0,3.0,19,0.00,,,0.00,Wunderground v.1.15,2013-01-23 20:00:00,
2013-01-23 12:05:00,67.5,23.7,30.01,SSE,149,11.0,11.0,19,0.00,,,0.00,Wunderground v.1.15,2013-01-23 20:05:00,
2013-01-23 12:10:00,67.3,23.6,30.01,ESE,121,2.0,10.0,19,0.00,,,0.00,Wunderground v.1.15,2013-01-23 20:10:00,
2013-01-23 12:15:00,67.1,23.4,30.01,East,94,5.0,10.0,19,0.00,,,0.00,Wunderground v.1.15,2013-01-23 20:15:00,
2013-01-23 12:20:00,67.0,23.3,30.01,ENE,67,1.0,3.0,19,0.00,,,0.00,Wunderground v.1.15,2013-01-23 20:20:00,
2013-01-23 12:25:00,66.9,24.5,30.01,ESE,107,1.0,10.0,20,0.00,,,0.00,Wunderground v.1.15,2013-01-23 20:25:00,
2013-01-23 12:30:00,66.9,23.3,30.01,NE,43,4.0,10.0,19,0.00,,,0.00,Wunderground v.1.15,2013-01-23 20:30:00,
2013-01-23 12:35:00,67.0,24.6,30.01,SE,138,2.0,12.0,20,0.00,,,0.00,Wunderground v.1.15,2013-01-23 20:35:00,
2013-01-23 12:40:00,67.0,24.6,30.01,ESE,112,0.0,8.0,20,0.00,,,0.00,Wunderground v.1.15,2013-01-23 20:40:00,
2013-01-23 12:45:00,67.2,24.7,30.00,ESE,123,11.0,11.0,20,0.00,,,0.00,Wunderground v.1.15,2013-01-23 20:45:00,
2013-01-23 12:50:00,67.9,25.3,30.00,ENE,61,10.0,10.0,20,0.00,,,0.00,Wunderground v.1.15,2013-01-23 20:50:00,
2013-01-23 12:55:00,68.7,24.7,30.00,South,178,3.0,10.0,19,0.00,,,0.00,Wunderground v.1.15,2013-01-23 20:55:00,
2013-01-23 13:00:00,68.6,24.7,29.99,East,86,1.0,9.0,19,0.00,,,0.00,Wunderground v.1.15,2013-01-23 21:00:00,
2013-01-23 13:06:00,68.4,24.5,30.00,ESE,118,1.0,11.0,19,0.00,,,0.00,Wunderground v.1.15,2013-01-23 21:06:00,
2013-01-23 13:10:00,68.2,25.6,29.99,East,86,1.0,5.0,20,0.00,,,0.00,Wunderground v.1.15,2013-01-23 21:10:00,
2013-01-23 13:16:00,68.0,25.4,29.99,ESE,111,1.0,9.0,20,0.00,,,0.00,Wunderground v.1.15,2013-01-23 21:16:00,
2013-01-23 13:20:00,67.9,25.3,29.98,ENE,63,1.0,6.0,20,0.00,,,0.00,Wunderground v.1.15,2013-01-23 21:20:00,
2013-01-23 13:26:00,67.7,25.1,29.98,East,80,2.0,6.0,20,0.00,,,0.00,Wunderground v.1.15,2013-01-23 21:26:00,
2013-01-23 13:31:00,67.7,25.1,29.98,SE,134,1.0,6.0,20,0.00,,,0.00,Wunderground v.1.15,2013-01-23 21:31:00,
2013-01-23 13:35:00,67.7,25.1,29.98,East,95,2.0,7.0,20,0.00,,,0.00,Wunderground v.1.15,2013-01-23 21:35:00,
2013-01-23 13:41:00,67.6,25.1,29.98,ESE,122,2.0,5.0,20,0.00,,,0.00,Wunderground v.1.15,2013-01-23 21:41:00,
2013-01-23 13:46:00,67.7,25.1,29.98,NE,55,1.0,10.0,20,0.00,,,0.00,Wunderground v.1.15,2013-01-23 21:46:00,
2013-01-23 13:51:00,67.9,25.3,29.99,ESE,119,1.0,3.0,20,0.00,,,0.00,Wunderground v.1.15,2013-01-23 21:51:00,
2013-01-23 13:56:00,68.0,25.4,29.99,ESE,107,0.0,6.0,20,0.00,,,0.00,Wunderground v.1.15,2013-01-23 21:56:00,
2013-01-23 14:01:00,68.1,25.5,29.99,SE,141,2.0,2.0,20,0.00,,,0.00,Wunderground v.1.15,2013-01-23 22:01:00,
2013-01-23 14:06:00,68.2,25.6,29.99,SSE,148,0.0,3.0,20,0.00,,,0.00,Wunderground v.1.15,2013-01-23 22:06:00,
2013-01-23 14:11:00,68.0,26.6,29.99,ESE,111,3.0,6.0,21,0.00,,,0.00,Wunderground v.1.15,2013-01-23 22:11:00,
2013-01-23 14:16:00,68.0,25.4,29.99,SE,126,0.0,9.0,20,0.00,,,0.00,Wunderground v.1.15,2013-01-23 22:16:00,
2013-01-23 14:21:00,67.9,26.5,29.99,ESE,117,6.0,6.0,21,0.00,,,0.00,Wunderground v.1.15,2013-01-23 22:21:00,
2013-01-23 14:26:00,68.1,26.7,29.99,NNE,32,1.0,6.0,21,0.00,,,0.00,Wunderground v.1.15,2013-01-23 22:26:00,
2013-01-23 14:31:00,68.3,26.8,29.99,ESE,109,0.0,1.0,21,0.00,,,0.00,Wunderground v.1.15,2013-01-23 22:31:00,
2013-01-23 14:36:00,68.3,26.8,29.99,East,101,1.0,6.0,21,0.00,,,0.00,Wunderground v.1.15,2013-01-23 22:36:00,
2013-01-23 14:41:00,68.3,26.8,29.99,ESE,122,0.0,9.0,21,0.00,,,0.00,Wunderground v.1.15,2013-01-23 22:41:00,
2013-01-23 14:46:00,68.3,26.8,29.99,East,81,0.0,9.0,21,0.00,,,0.00,Wunderground v.1.15,2013-01-23 22:46:00,
2013-01-23 14:51:00,68.3,26.8,29.99,SE,133,0.0,4.0,21,0.00,,,0.00,Wunderground v.1.15,2013-01-23 22:51:00,
2013-01-23 14:56:00,68.2,26.7,30.00,ESE,109,0.0,4.0,21,0.00,,,0.00,Wunderground v.1.15,2013-01-23 22:56:00,
2013-01-23 15:01:00,68.2,26.7,30.00,SE,130,1.0,2.0,21,0.00,,,0.00,Wunderground v.1.15,2013-01-23 23:01:00,
2013-01-23 15:06:00,68.1,26.7,29.99,East,99,0.0,5.0,21,0.00,,,0.00,Wunderground v.1.15,2013-01-23 23:06:00,
2013-01-23 15:11:00,67.9,26.5,29.99,ESE,119,0.0,1.0,21,0.00,,,0.00,Wunderground v.1.15,2013-01-23 23:11:00,
2013-01-23 15:16:00,67.7,26.3,29.99,ESE,121,0.0,4.0,21,0.00,,,0.00,Wunderground v.1.15,2013-01-23 23:16:00,
2013-01-23 15:21:00,67.6,26.2,29.99,ESE,107,0.0,0.0,21,0.00,,,0.00,Wunderground v.1.15,2013-01-23 23:21:00,
2013-01-23 15:26:00,67.5,26.2,29.99,East,95,0.0,4.0,21,0.00,,,0.00,Wunderground v.1.15,2013-01-23 23:26:00,
2013-01-23 15:31:00,67.4,26.1,30.00,ESE,103,0.0,0.0,21,0.00,,,0.00,Wunderground v.1.15,2013-01-23 23:31:00,
2013-01-23 15:36:00,67.3,26.0,30.00,East,92,0.0,1.0,21,0.00,,,0.00,Wunderground v.1.15,2013-01-23 23:36:00,
2013-01-23 15:41:00,67.1,25.8,30.00,ENE,73,0.0,0.0,21,0.00,,,0.00,Wunderground v.1.15,2013-01-23 23:41:00,
2013-01-23 15:46:00,67.1,25.8,30.00,ENE,73,0.0,0.0,21,0.00,,,0.00,Wunderground v.1.15,2013-01-23 23:46:00,
2013-01-23 15:51:00,67.0,26.9,30.01,SSE,150,0.0,1.0,22,0.00,,,0.00,Wunderground v.1.15,2013-01-23 23:51:00,
2013-01-23 15:56:00,66.9,26.8,30.01,SSE,150,0.0,1.0,22,0.00,,,0.00,Wunderground v.1.15,2013-01-23 23:56:00,
2013-01-23 16:01:00,66.8,26.7,30.01,SSE,149,0.0,0.0,22,0.00,,,0.00,Wunderground v.1.15,2013-01-24 00:01:00,
2013-01-23 16:06:00,66.7,26.6,30.01,South,180,0.0,0.0,22,0.00,,,0.00,Wunderground v.1.15,2013-01-24 00:06:00,
2013-01-23 16:11:00,66.6,32.5,30.01,South,181,0.0,0.0,28,0.00,,,0.00,Wunderground v.1.15,2013-01-24 00:11:00,
2013-01-23 16:16:00,66.5,34.1,30.01,WSW,244,0.0,1.0,30,0.00,,,0.00,Wunderground v.1.15,2013-01-24 00:16:00,
2013-01-23 16:21:00,66.3,33.9,30.02,WSW,244,0.0,1.0,30,0.00,,,0.00,Wunderground v.1.15,2013-01-24 00:21:00,
2013-01-23 16:26:00,66.0,33.7,30.02,WSW,244,0.0,3.0,30,0.00,,,0.00,Wunderground v.1.15,2013-01-24 00:26:00,
2013-01-23 16:31:00,65.8,33.5,30.01,WSW,244,0.0,1.0,30,0.00,,,0.00,Wunderground v.1.15,2013-01-24 00:31:00,
2013-01-23 16:36:00,65.6,33.3,30.01,WSW,244,0.0,1.0,30,0.00,,,0.00,Wunderground v.1.15,2013-01-24 00:36:00,
2013-01-23 16:41:00,65.3,33.0,30.01,WSW,244,0.0,0.0,30,0.00,,,0.00,Wunderground v.1.15,2013-01-24 00:41:00,
2013-01-23 16:46:00,65.0,32.8,30.01,WSW,244,0.0,0.0,30,0.00,,,0.00,Wunderground v.1.15,2013-01-24 00:46:00,
2013-01-23 16:51:00,64.8,33.4,30.01,WSW,244,0.0,0.0,31,0.00,,,0.00,Wunderground v.1.15,2013-01-24 00:51:00,
2013-01-23 16:56:00,64.5,33.2,30.01,WSW,244,0.0,0.0,31,0.00,,,0.00,Wunderground v.1.15,2013-01-24 00:56:00,
2013-01-23 17:01:00,64.3,33.8,30.01,WSW,244,0.0,0.0,32,0.00,,,0.00,Wunderground v.1.15,2013-01-24 01:01:00,
2013-01-23 17:06:00,63.9,33.4,30.01,WSW,244,0.0,0.0,32,0.00,,,0.00,Wunderground v.1.15,2013-01-24 01:06:00,
2013-01-23 17:11:00,63.4,33.8,30.02,WSW,244,0.0,0.0,33,0.00,,,0.00,Wunderground v.1.15,2013-01-24 01:11:00,
2013-01-23 17:16:00,63.0,33.4,30.02,WSW,244,0.0,0.0,33,0.00,,,0.00,Wunderground v.1.15,2013-01-24 01:16:00,
2013-01-23 17:21:00,62.6,33.1,30.02,WSW,244,0.0,0.0,33,0.00,,,0.00,Wunderground v.1.15,2013-01-24 01:21:00,
2013-01-23 17:26:00,62.4,32.9,30.03,WSW,244,0.0,0.0,33,0.00,,,0.00,Wunderground v.1.15,2013-01-24 01:26:00,
2013-01-23 17:31:00,62.3,33.6,30.03,WSW,244,0.0,0.0,34,0.00,,,0.00,Wunderground v.1.15,2013-01-24 01:31:00,
2013-01-23 17:36:00,62.3,32.8,30.03,WSW,244,0.0,2.0,33,0.00,,,0.00,Wunderground v.1.15,2013-01-24 01:36:00,
2013-01-23 17:41:00,62.5,33.0,30.02,WSW,245,0.0,2.0,33,0.00,,,0.00,Wunderground v.1.15,2013-01-24 01:41:00,
2013-01-23 17:46:00,62.5,33.7,30.02,WSW,245,0.0,2.0,34,0.00,,,0.00,Wunderground v.1.15,2013-01-24 01:46:00,
2013-01-23 17:51:00,62.3,33.6,30.03,WSW,245,0.0,0.0,34,0.00,,,0.00,Wunderground v.1.15,2013-01-24 01:51:00,
2013-01-23 17:56:00,62.1,34.1,30.04,WSW,245,0.0,0.0,35,0.00,,,0.00,Wunderground v.1.15,2013-01-24 01:56:00,
2013-01-23 18:01:00,62.0,33.3,30.03,West,259,0.0,1.0,34,0.00,,,0.00,Wunderground v.1.15,2013-01-24 02:01:00,
2013-01-23 18:07:00,61.9,33.2,30.03,West,259,0.0,1.0,34,0.00,,,0.00,Wunderground v.1.15,2013-01-24 02:07:00,
2013-01-23 18:12:00,61.8,33.1,30.04,West,259,0.0,0.0,34,0.00,,,0.00,Wunderground v.1.15,2013-01-24 02:12:00,
2013-01-23 18:17:00,61.7,33.0,30.04,West,259,0.0,0.0,34,0.00,,,0.00,Wunderground v.1.15,2013-01-24 02:17:00,
2013-01-23 18:22:00,61.5,32.8,30.04,West,259,0.0,0.0,34,0.00,,,0.00,Wunderground v.1.15,2013-01-24 02:22:00,
2013-01-23 18:27:00,61.4,33.5,30.04,West,259,0.0,0.0,35,0.00,,,0.00,Wunderground v.1.15,2013-01-24 02:27:00,
2013-01-23 18:32:00,61.2,33.3,30.04,West,259,0.0,0.0,35,0.00,,,0.00,Wunderground v.1.15,2013-01-24 02:32:00,
2013-01-23 18:37:00,61.0,33.8,30.05,West,259,0.0,0.0,36,0.00,,,0.00,Wunderground v.1.15,2013-01-24 02:37:00,
2013-01-23 18:42:00,60.6,34.2,30.05,West,259,0.0,0.0,37,0.00,,,0.00,Wunderground v.1.15,2013-01-24 02:42:00,
2013-01-23 18:47:00,60.2,35.1,30.05,West,259,0.0,0.0,39,0.00,,,0.00,Wunderground v.1.15,2013-01-24 02:47:00,
2013-01-23 18:52:00,59.8,35.4,30.05,West,259,0.0,0.0,40,0.00,,,0.00,Wunderground v.1.15,2013-01-24 02:52:00,
2013-01-23 18:57:00,59.5,35.1,30.05,West,259,0.0,0.0,40,0.00,,,0.00,Wunderground v.1.15,2013-01-24 02:57:00,
2013-01-23 19:02:00,59.4,34.4,30.05,West,259,0.0,0.0,39,0.00,,,0.00,Wunderground v.1.15,2013-01-24 03:02:00,
2013-01-23 19:07:00,59.5,34.5,30.05,West,259,0.0,0.0,39,0.00,,,0.00,Wunderground v.1.15,2013-01-24 03:07:00,
2013-01-23 19:12:00,59.5,35.1,30.04,West,259,0.0,0.0,40,0.00,,,0.00,Wunderground v.1.15,2013-01-24 03:12:00,
2013-01-23 19:17:00,59.4,35.7,30.05,West,259,0.0,0.0,41,0.00,,,0.00,Wunderground v.1.15,2013-01-24 03:17:00,
2013-01-23 19:22:00,59.2,35.5,30.05,West,259,0.0,0.0,41,0.00,,,0.00,Wunderground v.1.15,2013-01-24 03:22:00,
2013-01-23 19:27:00,59.0,36.5,30.05,West,259,0.0,0.0,43,0.00,,,0.00,Wunderground v.1.15,2013-01-24 03:27:00,
2013-01-23 19:32:00,59.0,36.5,30.05,West,259,0.0,0.0,43,0.00,,,0.00,Wunderground v.1.15,2013-01-24 03:32:00,
2013-01-23 19:37:00,59.0,36.5,30.05,West,261,0.0,1.0,43,0.00,,,0.00,Wunderground v.1.15,2013-01-24 03:37:00,
2013-01-23 19:42:00,58.9,35.8,30.05,West,261,0.0,0.0,42,0.00,,,0.00,Wunderground v.1.15,2013-01-24 03:42:00,
2013-01-23 19:47:00,59.0,34.7,30.04,West,261,0.0,0.0,40,0.00,,,0.00,Wunderground v.1.15,2013-01-24 03:47:00,
2013-01-23 19:52:00,59.0,34.1,30.04,West,262,0.0,0.0,39,0.00,,,0.00,Wunderground v.1.15,2013-01-24 03:52:00,
2013-01-23 19:57:00,59.2,34.2,30.04,West,261,0.0,0.0,39,0.00,,,0.00,Wunderground v.1.15,2013-01-24 03:57:00,
2013-01-23 20:02:00,59.3,34.3,30.04,West,261,0.0,0.0,39,0.00,,,0.00,Wunderground v.1.15,2013-01-24 04:02:00,
2013-01-23 20:07:00,59.2,34.2,30.03,West,262,0.0,0.0,39,0.00,,,0.00,Wunderground v.1.15,2013-01-24 04:07:00,
2013-01-23 20:12:00,59.1,34.1,30.03,West,261,0.0,0.0,39,0.00,,,0.00,Wunderground v.1.15,2013-01-24 04:12:00,
2013-01-23 20:17:00,59.0,34.7,30.04,WSW,256,0.0,4.0,40,0.00,,,0.00,Wunderground v.1.15,2013-01-24 04:17:00,
2013-01-23 20:22:00,59.4,33.8,30.04,WSW,258,0.0,2.0,38,0.00,,,0.00,Wunderground v.1.15,2013-01-24 04:22:00,
2013-01-23 20:27:00,59.8,33.5,30.03,West,259,0.0,2.0,37,0.00,,,0.00,Wunderground v.1.15,2013-01-24 04:27:00,
2013-01-23 20:32:00,59.9,33.5,30.02,WSW,258,0.0,0.0,37,0.00,,,0.00,Wunderground v.1.15,2013-01-24 04:32:00,
2013-01-23 20:37:00,59.9,34.2,30.02,West,263,1.0,2.0,38,0.00,,,0.00,Wunderground v.1.15,2013-01-24 04:37:00,
2013-01-23 20:42:00,59.9,34.2,30.02,West,265,0.0,0.0,38,0.00,,,0.00,Wunderground v.1.15,2013-01-24 04:42:00,
2013-01-23 20:47:00,60.0,33.6,30.01,West,261,0.0,3.0,37,0.00,,,0.00,Wunderground v.1.15,2013-01-24 04:47:00,
2013-01-23 20:53:00,60.4,34.0,30.01,West,262,0.0,2.0,37,0.00,,,0.00,Wunderground v.1.15,2013-01-24 04:53:00,
2013-01-23 20:58:00,60.6,33.5,30.01,West,261,0.0,3.0,36,0.00,,,0.00,Wunderground v.1.15,2013-01-24 04:58:00,
2013-01-23 21:01:00,60.7,33.6,30.01,West,261,0.0,0.0,36,0.00,,,0.00,Wunderground v.1.15,2013-01-24 05:01:00,
2013-01-23 21:02:00,60.8,33.7,30.01,West,261,0.0,0.0,36,0.00,,,0.00,Wunderground v.1.15,2013-01-24 05:02:00,
2013-01-23 21:04:00,60.8,33.7,30.01,West,261,0.0,0.0,36,0.00,,,0.00,Wunderground v.1.15,2013-01-24 05:04:00,
2013-01-23 21:09:00,60.8,33.7,30.02,West,261,0.0,0.0,36,0.00,,,0.00,Wunderground v.1.15,2013-01-24 05:09:00,
2013-01-23 21:14:00,60.8,33.7,30.02,West,261,0.0,0.0,36,0.00,,,0.00,Wunderground v.1.15,2013-01-24 05:14:00,
2013-01-23 21:19:00,60.5,34.1,30.03,West,261,0.0,0.0,37,0.00,,,0.00,Wunderground v.1.15,2013-01-24 05:19:00,
2013-01-23 21:24:00,60.0,33.6,30.03,West,260,0.0,0.0,37,0.00,,,0.00,Wunderground v.1.15,2013-01-24 05:24:00,
2013-01-23 21:29:00,59.6,33.9,30.03,West,261,0.0,0.0,38,0.00,,,0.00,Wunderground v.1.15,2013-01-24 05:29:00,
2013-01-23 21:34:00,59.1,33.5,30.03,West,261,0.0,0.0,38,0.00,,,0.00,Wunderground v.1.15,2013-01-24 05:34:00,
2013-01-23 21:39:00,59.0,34.1,30.03,NE,41,0.0,0.0,39,0.00,,,0.00,Wunderground v.1.15,2013-01-24 05:39:00,
2013-01-23 21:44:00,58.7,34.4,30.04,NE,53,0.0,0.0,40,0.00,,,0.00,Wunderground v.1.15,2013-01-24 05:44:00,
2013-01-23 21:49:00,58.4,34.8,30.04,NE,40,0.0,0.0,41,0.00,,,0.00,Wunderground v.1.15,2013-01-24 05:49:00,
2013-01-23 21:54:00,58.1,34.5,30.04,NE,40,0.0,0.0,41,0.00,,,0.00,Wunderground v.1.15,2013-01-24 05:54:00,
2013-01-23 21:59:00,57.9,34.3,30.04,NE,40,0.0,0.0,41,0.00,,,0.00,Wunderground v.1.15,2013-01-24 05:59:00,
2013-01-23 22:04:00,57.8,34.8,30.04,NE,40,0.0,0.0,42,0.00,,,0.00,Wunderground v.1.15,2013-01-24 06:04:00,
2013-01-23 22:09:00,57.7,34.7,30.04,NE,40,0.0,0.0,42,0.00,,,0.00,Wunderground v.1.15,2013-01-24 06:09:00,
2013-01-23 22:14:00,57.6,35.8,30.04,NNE,26,0.0,0.0,44,0.00,,,0.00,Wunderground v.1.15,2013-01-24 06:14:00,
2013-01-23 22:19:00,57.4,35.6,30.04,NNE,26,0.0,0.0,44,0.00,,,0.00,Wunderground v.1.15,2013-01-24 06:19:00,
2013-01-23 22:24:00,57.2,35.5,30.05,NNE,25,0.0,0.0,44,0.00,,,0.00,Wunderground v.1.15,2013-01-24 06:24:00,
2013-01-23 22:29:00,57.1,35.4,30.05,NNE,25,0.0,0.0,44,0.00,,,0.00,Wunderground v.1.15,2013-01-24 06:29:00,
2013-01-23 22:34:00,57.0,37.0,30.05,NNE,25,0.0,0.0,47,0.00,,,0.00,Wunderground v.1.15,2013-01-24 06:34:00,
2013-01-23 22:39:00,56.9,37.4,30.05,NNE,25,0.0,0.0,48,0.00,,,0.00,Wunderground v.1.15,2013-01-24 06:39:00,
2013-01-23 22:44:00,56.7,38.3,30.05,NNE,25,0.0,0.0,50,0.00,,,0.00,Wunderground v.1.15,2013-01-24 06:44:00,
2013-01-23 22:49:00,56.5,38.6,30.05,NNE,25,0.0,0.0,51,0.00,,,0.00,Wunderground v.1.15,2013-01-24 06:49:00,
2013-01-23 22:54:00,56.4,39.5,30.06,NNE,26,0.0,0.0,53,0.00,,,0.00,Wunderground v.1.15,2013-01-24 06:54:00,
2013-01-23 22:59:00,56.4,39.0,30.06,NNE,25,0.0,0.0,52,0.00,,,0.00,Wunderground v.1.15,2013-01-24 06:59:00,
2013-01-23 23:04:00,56.4,38.5,30.04,NNE,25,0.0,0.0,51,0.00,,,0.00,Wunderground v.1.15,2013-01-24 07:04:00,
2013-01-23 23:09:00,56.5,37.6,30.04,NNE,25,0.0,0.0,49,0.00,,,0.00,Wunderground v.1.15,2013-01-24 07:09:00,
2013-01-23 23:14:00,57.1,37.0,30.03,NE,42,0.0,1.0,47,0.00,,,0.00,Wunderground v.1.15,2013-01-24 07:14:00,
2013-01-23 23:19:00,57.8,36.6,30.03,NE,42,0.0,1.0,45,0.00,,,0.00,Wunderground v.1.15,2013-01-24 07:19:00,
2013-01-23 23:24:00,58.5,37.2,30.02,NE,43,0.0,0.0,45,0.00,,,0.00,Wunderground v.1.15,2013-01-24 07:24:00,
2013-01-23 23:29:00,59.0,38.8,30.02,NE,42,0.0,0.0,47,0.00,,,0.00,Wunderground v.1.15,2013-01-24 07:29:00,
2013-01-23 23:34:00,59.5,39.2,30.02,NE,43,0.0,0.0,47,0.00,,,0.00,Wunderground v.1.15,2013-01-24 07:34:00,
2013-01-23 23:40:00,59.9,39.6,30.02,East,86,0.0,0.0,47,0.00,,,0.00,Wunderground v.1.15,2013-01-24 07:40:00,
2013-01-23 23:45:00,60.0,38.6,30.02,SE,132,0.0,0.0,45,0.00,,,0.00,Wunderground v.1.15,2013-01-24 07:45:00,
2013-01-23 23:50:00,59.9,38.5,30.02,ESE,121,0.0,0.0,45,0.00,,,0.00,Wunderground v.1.15,2013-01-24 07:50:00,
2013-01-23 23:55:00,59.6,38.2,30.02,ESE,121,0.0,0.0,45,0.00,,,0.00,Wunderground v.1.15,2013-01-24 07:55:00,